This demonstration page uses our WeatherBlox Daily Observations layout. Learn more.

Left ArrowRight Arrow

30.21309, -93.2044

Hourly Observations for July 15, 2022

Temp ( °F °C ) Dew Point ( °F °C ) Humidity (%) Winds ( mph kmh ) Pressure ( in mb ) Visibility ( mi km ) Precip ( " mm )
12:15 am 00:15 Partly Cloudy 76 24.5 74 23.3 93 93 SE 7 11 30.07 1018 10 16 0.00 0.00
12:35 am 00:35 Clear 76 24.7 74 23.5 93 93 SE 6 9 30.07 1018 10 16 0.00 0.00
12:50 am 00:50 Clear 77 24.9 74 23.6 93 93 SE 6 9 30.07 1018 10 16 0.00 0.00
1:15 am 01:15 Clear 77 24.9 74 23.6 93 93 SE 6 9 30.07 1018 10 16 0.00 0.00
1:35 am 01:35 Clear 76 24.7 74 23.6 94 94 ESE 3 6 30.07 1018 10 16 0.00 0.00
1:55 am 01:55 Clear 76 24.5 74 23.5 94 94 SSE 3 6 30.06 1018 10 16 0.00 0.00
2:15 am 02:15 Clear 76 24.3 74 23.3 94 94 ESE 3 6 30.05 1018 10 16 0.00 0.00
2:35 am 02:35 Clear 76 24.3 74 23.4 95 95 E 3 6 30.05 1018 10 16 0.00 0.00
2:55 am 02:55 Clear 76 24.3 74 23.4 95 95 Calm 30.05 1018 10 16 0.00 0.00
3:15 am 03:15 Clear 76 24.4 74 23.5 95 95 NNE 3 6 30.06 1018 10 16 0.00 0.00
3:35 am 03:35 Clear 76 24.5 74 23.5 94 94 ENE 3 6 30.05 1018 10 16 0.00 0.00
3:55 am 03:55 Clear 76 24.4 74 23.4 94 94 E 5 7 30.06 1018 10 16 0.00 0.00
4:15 am 04:15 Clear 76 24.5 74 23.6 95 95 E 5 7 30.06 1018 10 16 0.00 0.00
4:35 am 04:35 Partly Cloudy 76 24.4 74 23.5 95 95 E 5 7 30.05 1018 10 16 0.00 0.00
4:55 am 04:55 Clear 76 24.5 74 23.6 95 95 E 5 7 30.06 1018 10 16 0.00 0.00
5:15 am 05:15 Clear 76 24.4 74 23.5 95 95 E 3 6 30.06 1018 10 16 0.00 0.00
5:35 am 05:35 Clear 76 24.6 74 23.6 94 94 ENE 3 6 30.07 1018 10 16 0.00 0.00
6:00 am 06:00 Mostly Cloudy 75 24 75 24 100 100 Calm 30.07 1018 10 16 0.00 0.00
6:45 am 06:45 Mostly Cloudy 77 25 75 24 94 94 Calm 30.08 1019 10 16 0.00 0.00
7:47 am 07:47 Mostly Cloudy 79 26 75 24 89 89 Calm 30.08 1019 10 16 0.00 0.00
8:50 am 08:50 Partly Cloudy 81 27 75 24 84 84 ESE 6 9 30.10 1019 10 16 0.00 0.00
9:52 am 09:52 Partly Cloudy 82 28 75 24 79 79 Calm 30.09 1019 10 16 0.00 0.00
10:52 am 10:52 Partly Cloudy 86 30 75 24 70 70 Calm 30.09 1019 10 16 0.00 0.00
11:52 am 11:52 Mostly Cloudy 90 32 75 24 63 63 SSE 6 9 30.10 1019 10 16 0.00 0.00
12:47 pm 12:47 Mostly Cloudy 90 32 73 23 59 59 SSE 9 15 30.09 1019 10 16 0.00 0.00
1:50 pm 13:50 Mostly Cloudy 91 33 72 22 52 52 SSW 9 15 30.07 1018 10 16 0.00 0.00
2:50 pm 14:50 Mostly Cloudy 90 32 73 23 59 59 S 7 11 30.06 1018 10 16 0.00 0.00
3:47 pm 15:47 Mostly Cloudy 91 33 72 22 52 52 S 8 13 30.05 1018 10 16 0.00 0.00
4:55 pm 16:55 Mostly Cloudy 91 33 72 22 52 52 SSW 12 19 30.05 1018 10 16 0.00 0.00
5:50 pm 17:50 Mostly Cloudy 90 32 73 23 59 59 SSE 10 17 30.06 1018 10 16 0.00 0.00
6:55 pm 18:55 Mostly Sunny 90 32 72 22 55 55 SW 14 22 30.04 1017 10 16 0.00 0.00
7:48 pm 19:48 Mostly Sunny 86 30 73 23 66 66 SSW 8 13 30.04 1017 10 16 0.00 0.00
8:50 pm 20:50 Mostly Clear 84 29 73 23 70 70 SSW 7 11 30.04 1017 10 16 0.00 0.00
9:45 pm 21:45 Mostly Clear 84 29 73 23 70 70 SW 7 11 30.04 1017 10 16 0.00 0.00
10:15 pm 22:15 Hazy 83 28.5 74 23.1 73 73 WSW 6 9 30.05 1018 7 11 0.00 0.00
10:35 pm 22:35 Clear 83 28.3 74 23.2 74 74 WSW 3 6 30.05 1018 10 16 0.00 0.00
10:55 pm 22:55 Clear 80 26.4 74 23.1 82 82 Calm 30.06 1018 10 16 0.00 0.00
11:15 pm 23:15 Clear 78 25.6 74 23.2 87 87 SW 3 6 30.06 1018 10 16 0.00 0.00
11:35 pm 23:35 Clear 78 25.6 74 23.3 87 87 WSW 3 6 30.05 1018 10 16 0.00 0.00
11:55 pm 23:55 Clear 81 27.3 74 23.3 79 79 SW 3 6 30.05 1018 10 16 0.00 0.00

Powered by AerisWeather